CDT,Max TemperatureF,Mean TemperatureF,Min TemperatureF,Max Dew PointF,MeanDew PointF,Min DewpointF,Max Humidity, Mean Humidity, Min Humidity, Max Sea Level PressureIn, Mean Sea Level PressureIn, Min Sea Level PressureIn, Max VisibilityMiles, Mean VisibilityMiles, Min VisibilityMiles, Max Wind SpeedMPH, Mean Wind SpeedMPH, Max Gust SpeedMPH,PrecipitationIn, CloudCover, Events, WindDirDegrees
2013-6-1,78,70,62,68,62,52,100,81,41,29.73,29.68,29.64,10,9,3,21,10,30,0.00,6,,218
2013-6-2,62,56,50,61,45,40,99,69,52,30.03,29.94,29.74,10,10,10,16,9,29,0.00,6,,332
2013-6-3,70,58,46,49,42,36,99,55,31,30.11,30.06,30.01,10,10,10,10,5,,0.00,1,,224
2013-6-4,69,62,54,55,46,40,96,60,35,30.17,30.12,30.06,10,10,10,12,5,18,0.00,4,Rain,122
2013-6-5,68,60,52,61,55,45,100,89,61,30.10,30.02,29.95,10,10,3,10,7,,0.23,7,Rain,96
2013-6-6,60,56,53,58,56,53,100,99,94,29.95,29.93,29.90,10,7,1,12,6,,0.25,8,Rain,56
2013-6-7,70,62,53,56,52,43,100,75,43,29.99,29.95,29.92,10,10,7,9,5,17,0.00,6,,18
2013-6-8,73,64,54,50,43,38,64,48,32,29.99,29.97,29.94,10,10,10,10,6,,0.00,3,,149
2013-6-9,80,68,57,67,54,43,100,65,40,29.99,29.88,29.79,10,10,7,23,9,30,0.05,7,Rain,116
2013-6-10,80,70,60,66,61,56,100,74,45,29.88,29.82,29.78,10,8,0,13,5,18,0.00,2,Fog-Rain,294
2013-6-11,85,73,61,68,61,56,100,68,38,29.93,29.89,29.82,10,10,7,16,6,23,0.00,1,,239
2013-6-12,83,74,65,72,67,63,100,83,56,29.94,29.78,29.64,10,10,7,24,8,36,0.00,4,Rain-Thunderstorm,69
2013-6-13,80,69,59,65,55,48,100,64,33,30.06,29.95,29.73,10,10,7,20,11,26,0.00,3,Rain,360
2013-6-14,78,66,55,60,54,50,98,64,38,30.16,30.08,30.00,10,10,10,10,5,17,0.00,0,,120
2013-6-15,82,70,58,74,63,52,100,81,55,30.05,29.95,29.84,10,10,3,24,8,34,0.27,5,Rain-Thunderstorm,184
2013-6-16,85,74,65,70,56,44,100,58,24,29.95,29.92,29.88,10,10,10,25,12,32,0.00,1,Thunderstorm,272
2013-6-17,88,75,62,57,51,48,73,43,26,29.96,29.92,29.88,10,10,10,15,10,36,0.00,1,,279
2013-6-18,74,65,56,57,53,46,99,67,47,30.10,30.04,29.96,10,10,10,18,11,23,0.00,2,,45
2013-6-19,81,66,53,53,47,41,67,48,31,30.15,30.10,30.07,10,10,10,12,5,16,0.00,1,,110
2013-6-20,88,74,59,60,52,45,64,47,29,30.15,30.10,30.05,10,10,10,14,8,21,0.00,0,,153
2013-6-21,75,70,66,71,64,59,100,79,60,30.14,30.03,29.84,10,10,2,30,10,40,0.38,3,Rain-Thunderstorm,170
2013-6-22,83,74,66,78,70,61,100,89,56,30.15,30.01,29.93,10,9,2,26,11,32,2.83,5,Rain-Thunderstorm,163
2013-6-23,84,74,64,77,70,65,100,90,62,30.08,29.97,29.88,10,10,10,22,9,26,0.02,1,Rain-Thunderstorm,181
2013-6-24,81,74,67,71,68,64,100,91,55,30.06,29.96,29.86,10,10,1,29,12,36,0.22,3,Rain-Thunderstorm,208
2013-6-25,82,74,65,80,72,65,100,97,80,29.97,29.87,29.81,10,9,1,15,7,33,1.79,5,Rain-Thunderstorm,155
2013-6-26,83,76,68,76,70,64,100,85,53,29.80,29.77,29.73,10,10,7,15,7,25,0.00,4,Rain-Thunderstorm,138
2013-6-27,87,79,70,75,66,53,100,68,33,29.84,29.79,29.74,10,10,7,22,8,29,0.00,1,,273
2013-6-28,79,72,65,67,59,55,100,67,44,29.78,29.71,29.66,10,10,7,22,12,31,0.00,3,Rain-Thunderstorm,299
2013-6-29,72,66,62,69,64,58,100,92,64,29.84,29.72,29.64,10,9,1,18,8,25,0.48,7,Rain-Thunderstorm,357
2013-6-30,77,68,60,64,55,46,100,66,43,30.06,29.95,29.84,10,10,10,18,10,24,0.00,3,Rain,9